Retour au catalogue

DELTA 1 DEB

ActifLEO
NORAD 21674·DEBRIS·🇺🇸 United States

Lancé Jun 12, 1975 depuis Vandenberg Space Force Base

Loading…

Prochains Passages (prochaines 24 heures)

TLE

FraisSource: Space-Track

Époque: Sep 14, 2026, 04:58 UTC

1 21674U 75052JA  26257.20701557  .00003467  00000-0  75509-3 0  9997
2 21674 100.0533 167.4172 0096079 237.7499 121.4354 14.55996502823845

Suivez DELTA 1 DEB en temps réel avec AllMySat

Download on the App Store